Greenville, AL

9:21 PM CDT on October 23, 2017 (GMT -0500)
Greenville Municipal

Weather History for KPRN - January, 2013

Change the Weather History Date:

Sunday, January 27, 2013

  Actual Average Record
Temperature  
Mean Temperature 58 °F -  
Max Temperature 70 °F 59 °F 80 °F (1944)
Min Temperature 45 °F 35 °F 8 °F (1940)
Degree Days  
Heating Degree Days 8    
Growing Degree Days 8 (Base 50)    
Moisture  
Dew Point 43 °F    
Average Humidity 59    
Maximum Humidity 80    
Minimum Humidity 41    
Precipitation  
Precipitation 0.00 in - - ()
Sea Level Pressure  
Sea Level Pressure 30.29 in    
Wind  
Wind Speed 3 mph (East)    
Max Wind Speed 9 mph    
Max Gust Speed -    
Visibility 10 miles    
Events      
Averages and records for this station are not official NWS values.
T = Trace of Precipitation, MM = Missing Value Source: NWS Daily Summary

Daily Weather History Graph

Daily Weather History Graph

Search for Another Location

Airport or City:

Trip Planner

Search our weather history database for the weather conditions in past years. The results will help you decide how hot, cold, wet, or windy it might be!

Date:

Astronomy

Jan. 27, 2013 Rise Set
Actual Time 6:42 AM CST 5:16 PM CST
Civil Twilight 6:16 AM CST 5:42 PM CST
Nautical Twilight 5:47 AM CST 6:11 PM CST
Astronomical Twilight 5:18 AM CST 6:40 PM CST
Moon 6:03 PM CST (1/27) 6:40 AM CST (1/27)
Length of Visible Light 11h 25m
Length of Day
10h 33m
Full, 100% of the Moon is Illuminated
Jan 27
Full
Feb 3
Last Quarter
Feb 10
New
Feb 17
First Quarter
Feb 25
Full

Hourly Weather History & Observations

Time (CST) Temp. Windchill Dew Point Humidity Pressure Visibility Wind Dir Wind Speed Gust Speed Precip Events Conditions
12:56 AM 51.1 °F - 42.1 °F 71% 30.27 in 10.0 mi Calm Calm - N/A   Overcast
1:56 AM 50.0 °F - 41.0 °F 71% 30.27 in 10.0 mi Calm Calm - N/A   Overcast
2:56 AM 48.9 °F - 43.0 °F 80% 30.28 in 10.0 mi NNE 3.5 mph - N/A   Overcast
3:56 AM 48.9 °F - 42.1 °F 77% 30.28 in 10.0 mi Calm Calm - N/A   Clear
4:56 AM 46.9 °F - 39.9 °F 77% 30.28 in 10.0 mi Calm Calm - N/A   Clear
5:56 AM 46.9 °F - 37.9 °F 71% 30.30 in 10.0 mi Calm Calm - N/A   Clear
6:56 AM 45.0 °F 43.5 °F 37.0 °F 74% 30.32 in 10.0 mi ESE 3.5 mph - N/A   Clear
7:56 AM 48.9 °F - 36.0 °F 61% 30.32 in 10.0 mi East 4.6 mph - N/A   Clear
8:56 AM 54.0 °F - 33.1 °F 45% 30.34 in 10.0 mi ESE 6.9 mph - N/A   Clear
9:56 AM 59.0 °F - 35.1 °F 41% 30.33 in 10.0 mi ESE 4.6 mph - N/A   Clear
10:56 AM 63.0 °F - 39.9 °F 43% 30.32 in 10.0 mi ESE 5.8 mph - N/A   Clear
11:56 AM 66.9 °F - 45.0 °F 45% 30.30 in 10.0 mi Variable 5.8 mph - N/A   Clear
12:56 PM 68.0 °F - 46.9 °F 47% 30.27 in 10.0 mi ENE 6.9 mph - N/A   Clear
2:56 PM 70.0 °F - 48.0 °F 46% 30.26 in 10.0 mi SE 4.6 mph - N/A   Clear
3:56 PM 68.0 °F - 48.0 °F 49% 30.26 in 10.0 mi ESE 5.8 mph - N/A   Clear
4:56 PM 66.0 °F - 46.9 °F 50% 30.27 in 10.0 mi East 3.5 mph - N/A   Clear
5:56 PM 62.1 °F - 46.9 °F 58% 30.28 in 10.0 mi East 4.6 mph - N/A   Clear
6:56 PM 61.0 °F - 46.0 °F 58% 30.29 in 10.0 mi East 4.6 mph - N/A   Mostly Cloudy
7:56 PM 61.0 °F - 43.0 °F 52% 30.29 in 10.0 mi East 4.6 mph - N/A   Overcast
8:56 PM 61.0 °F - 44.1 °F 54% 30.28 in 10.0 mi ESE 5.8 mph - N/A   Overcast
9:56 PM 61.0 °F - 45.0 °F 56% 30.28 in 10.0 mi ESE 9.2 mph - N/A   Overcast
10:56 PM 59.0 °F - 46.0 °F 62% 30.29 in 10.0 mi ESE 5.8 mph - N/A   Mostly Cloudy
11:56 PM 57.0 °F - 46.0 °F 67% 30.28 in 10.0 mi ESE 4.6 mph - N/A   Scattered Clouds